Weather History for St. Joseph, MO

Change the Weather History Date:

Tuesday, November 6, 2012

  Actual Average Record
Temperature  
Mean Temperature 48 °F 46 °F  
Max Temperature 58 °F 58 °F 82 °F (1915)
Min Temperature 38 °F 35 °F 14 °F (1959)
Degree Days  
Heating Degree Days 17 19  
Month to date heating degree days 102 105  
Since 1 July heating degree days 603 524  
Cooling Degree Days 0 0  
Month to date cooling degree days 0 0  
Year to date cooling degree days 1560 1220  
Moisture  
Dew Point 36 °F    
Average Humidity 65    
Maximum Humidity 93    
Minimum Humidity 36    
Precipitation  
Precipitation T in 0.06 in 1.57 in (1920)
Month to date precipitation 0.19 0.49  
Year to date precipitation 20.71 33.02  
Sea Level Pressure  
Sea Level Pressure 30.04 in    
Wind  
Wind Speed 9 mph (West)    
Max Wind Speed 26 mph    
Max Gust Speed 33 mph    
Visibility 8 miles    
Events      
T = Trace of Precipitation, MM = Missing Value Source: NWS Daily Summary

Daily Weather History Graph

Daily Weather History Graph

Search for Another Location

Airport:

Trip Planner

Search our weather history database for the weather conditions in past years. The results will help you decide how hot, cold, wet, or windy it might be!

Date:

Astronomy

Nov. 06, 2012 Rise Set
Actual Time 6:54 AM CST 5:11 PM CST
Civil Twilight 6:26 AM CST 5:39 PM CST
Nautical Twilight 5:54 AM CST 6:11 PM CST
Astronomical Twilight 5:22 AM CST 6:43 PM CST
Moon 11:51 PM CST (11/6) 12:47 PM CST (11/6)
Length of Visible Light 11h 13m
Length of Day
10h 16m
Waning Gibbous, 53% of the Moon is Illuminated
Nov 6
Waning Gibbous
Nov 6
Last Quarter
Nov 13
New
Nov 20
First Quarter
Nov 28
Full

Hourly Weather History & Observations

Time (CST) Temp. Windchill Dew Point Humidity Pressure Visibility Wind Dir Wind Speed Gust Speed Precip Events Conditions
12:01 AM 42.8 °F - 39.2 °F 87% 30.11 in 5.0 mi Calm Calm - N/A   Overcast
12:46 AM 42.8 °F 40.1 °F 37.4 °F 81% 30.08 in 5.0 mi SSW 4.6 mph - N/A   Overcast
12:53 AM 42.1 °F 39.2 °F 39.0 °F 89% 30.09 in 4.0 mi SSW 4.6 mph - N/A   Overcast
1:53 AM 41.0 °F 39.0 °F 39.0 °F 93% 30.08 in 3.0 mi South 3.5 mph - N/A   Overcast
2:38 AM 41.0 °F 38.0 °F 39.2 °F 93% 30.07 in 3.0 mi SSW 4.6 mph - N/A   Overcast
2:53 AM 41.0 °F 38.0 °F 39.0 °F 93% 30.08 in 4.0 mi South 4.6 mph - N/A   Overcast
3:10 AM 42.8 °F 40.1 °F 39.2 °F 87% 30.06 in 4.0 mi South 4.6 mph - N/A   Overcast
3:53 AM 41.0 °F 37.1 °F 39.0 °F 93% 30.05 in 4.0 mi South 5.8 mph - N/A   Overcast
4:53 AM 41.0 °F 37.1 °F 37.9 °F 89% 30.05 in 5.0 mi SW 5.8 mph - 0.00 in   Overcast
5:53 AM 41.0 °F 37.1 °F 37.9 °F 89% 30.04 in 5.0 mi South 5.8 mph - N/A   Overcast
6:53 AM 42.1 °F 37.1 °F 37.9 °F 85% 30.02 in 7.0 mi SSW 8.1 mph - 0.01 in   Overcast
7:18 AM 42.8 °F 37.0 °F 37.4 °F 81% 30.01 in 6.0 mi SSW 10.4 mph - N/A   Overcast
7:53 AM 42.1 °F 36.1 °F 37.9 °F 85% 30.02 in 7.0 mi SW 10.4 mph - N/A   Mostly Cloudy
8:53 AM 45.0 °F 38.9 °F 39.0 °F 80% 30.04 in 8.0 mi West 12.7 mph - N/A   Mostly Cloudy
9:02 AM 44.6 °F 38.4 °F 39.2 °F 81% 30.03 in 9.0 mi West 12.7 mph - N/A   Overcast
9:53 AM 46.9 °F - 39.0 °F 74% 30.04 in 10.0 mi WNW 13.8 mph - N/A   Overcast
10:11 AM 48.2 °F - 39.2 °F 71% 30.03 in 10.0 mi NW 12.7 mph 19.6 mph N/A   Overcast
10:53 AM 50.0 °F - 41.0 °F 71% 30.03 in 10.0 mi NW 15.0 mph - N/A   Scattered Clouds
11:53 AM 55.0 °F - 37.9 °F 53% 30.00 in 10.0 mi NW 12.7 mph 25.3 mph N/A   Clear
12:53 PM 57.0 °F - 36.0 °F 45% 29.99 in 10.0 mi NW 23.0 mph 28.8 mph N/A   Clear
1:53 PM 57.0 °F - 32.0 °F 39% 29.99 in 10.0 mi NW 24.2 mph 29.9 mph N/A   Clear
2:53 PM 57.9 °F - 30.9 °F 36% 29.99 in 10.0 mi NNW 17.3 mph 28.8 mph N/A   Clear
3:53 PM 57.0 °F - 30.0 °F 36% 30.00 in 10.0 mi NW 18.4 mph 28.8 mph N/A   Clear
4:53 PM 55.0 °F - 30.0 °F 38% 30.01 in 10.0 mi NNW 15.0 mph - N/A   Clear
5:53 PM 50.0 °F - 30.0 °F 46% 30.03 in 10.0 mi NNW 10.4 mph - N/A   Clear
6:53 PM 45.0 °F 42.6 °F 30.9 °F 58% 30.06 in 10.0 mi NNW 4.6 mph - N/A   Clear
7:53 PM 44.1 °F 40.8 °F 30.9 °F 60% 30.06 in 10.0 mi WNW 5.8 mph - N/A   Clear
8:53 PM 43.0 °F - 30.0 °F 60% 30.07 in 10.0 mi Calm Calm - N/A   Clear
9:53 PM 41.0 °F - 30.9 °F 67% 30.08 in 10.0 mi Calm Calm - N/A   Clear
10:53 PM 39.0 °F 36.8 °F 28.9 °F 67% 30.08 in 10.0 mi NE 3.5 mph - N/A   Clear
11:53 PM 39.9 °F - 30.0 °F 68% 30.09 in 10.0 mi Calm Calm - N/A   Clear